Content
SEND FEEDBACK

Daily
Averages
Monthly
Summary
United Kingdom

WYMESWOLD, ENGLAND


Home > Europe > United Kingdom > England
Elevation: 272 feet     Latitude: 52 48N     Longitude: 001 08W

WEATHER
 
SELECT A DAY
Number of Records: 293,297;   Date Range: 7/1/96 - 12/25/14
 
SHARE

PRINT THIS DATA

[ ← Previous Day ]
WEATHER ALMANAC - FEBRUARY 21, 2014
[ Next Day → ]
[ °C ]   °F
Weather ElementAverageHighLow
Temperature41.5 °F46.4 °F (12:20 pm)37.4 °F (3:20 am)
Dewpoint35.8 °F39.2 °F (4:20 pm)33.8 °F (4:50 am)
Humidity80.5 %93 % (3:20 am)62 % (12:20 pm)
Barometer29.49 in29.50 in (1:50 am)29.47 in (12:50 am)
Wind Speed19 mph27.6 mph (9:50 pm)
Wind Gust40.3 mph (9:50 pm)
Weather ElementAverage
Visibility6.2 mi
Wind DirectionSW (227.2 °)

Weather ElementTotal
Precipitation---
Heating Degree Days23.1 (Base 65)
Averaged from 47 records on February 21, 2014
WEATHER CONDITIONS BREAKOUT
WIND DIRECTION BREAKOUT
WEATHER BY HOUR - FEBRUARY 21, 2014
[ °C ]   °F
Local TimeTemperatureDewpointHumidityBarometerVisibilityWind DirectionWind SpeedGust SpeedPrecipitationEventsConditions
12:50 AM39.2 °F35.6 °F87 %29.47 inWSW (240°)13.8 mphClear
1:20 AM39.2 °F35.6 °F87 %29.47 inWSW (240°)12.7 mphClear
1:50 AM39.2 °F35.6 °F87 %29.50 inSW (230°)13.8 mphClear
2:20 AM39.2 °F35.6 °F87 %29.50 inSW (230°)13.8 mphClear
2:50 AM39.2 °F35.6 °F87 %29.50 inWSW (240°)17.3 mphClear
3:20 AM37.4 °F35.6 °F93 %29.50 inWSW (240°)15.0 mphClear
3:50 AM37.4 °F35.6 °F93 %29.50 inSW (230°)16.1 mphClear
4:20 AM37.4 °F35.6 °F93 %29.47 inSW (230°)15.0 mphClear
4:50 AM37.4 °F33.8 °F87 %29.47 inSW (220°)12.7 mphClear
5:20 AM37.4 °F33.8 °F87 %29.50 inSW (220°)12.7 mphClear
5:50 AM37.4 °F33.8 °F87 %29.50 in6.2 miSW (220°)12.7 mphPartly Cloudy
6:20 AM37.4 °F33.8 °F87 %29.50 in6.2 miSW (230°)15.0 mphPartly Cloudy
6:50 AM37.4 °F33.8 °F87 %29.50 inSW (230°)17.3 mphClear
7:20 AM37.4 °F33.8 °F87 %29.50 inSW (220°)16.1 mphClear
7:50 AM39.2 °F33.8 °F81 %29.50 inSW (220°)16.1 mphClear
8:20 AM37.4 °F33.8 °F87 %29.50 inSW (230°)16.1 mphClear
8:50 AM39.2 °F33.8 °F81 %29.50 inSW (230°)16.1 mphClear
9:20 AM41.0 °F35.6 °F81 %29.50 inSW (230°)18.4 mphClear
9:50 AM42.8 °F35.6 °F76 %29.50 inSW (230°)18.4 mphClear
10:20 AM42.8 °F35.6 °F76 %29.50 in6.2 miWSW (240°)23.0 mphPartly Cloudy
10:50 AM44.6 °F35.6 °F71 %29.50 in6.2 miSW (230°)21.9 mphScattered Clouds
11:20 AM44.6 °F35.6 °F71 %29.50 in6.2 miWSW (240°)20.7 mphScattered Clouds
11:50 AM44.6 °F33.8 °F66 %29.50 in6.2 miWSW (240°)26.5 mphScattered Clouds
12:20 PM46.4 °F33.8 °F62 %29.50 in6.2 miSW (230°)23.0 mphMostly Cloudy
12:50 PM46.4 °F35.6 °F66 %29.50 in6.2 miSW (220°)23.0 mphScattered Clouds
1:20 PM46.4 °F35.6 °F66 %29.50 in6.2 miSW (220°)20.7 mphScattered Clouds
1:50 PM46.4 °F37.4 °F71 %29.50 in6.2 miSW (230°)21.9 mphScattered Clouds
2:20 PM46.4 °F35.6 °F66 %29.50 in6.2 miSW (220°)20.7 mphScattered Clouds
2:50 PM46.4 °F35.6 °F66 %29.50 in6.2 miWSW (240°)24.2 mphScattered Clouds
3:20 PM46.4 °F35.6 °F66 %29.47 in6.2 miSW (220°)21.9 mphScattered Clouds
3:50 PM44.6 °F37.4 °F76 %29.50 in6.2 miSW (220°)20.7 mphRainLight Rain Showers
4:20 PM44.6 °F39.2 °F81 %29.50 in6.2 miSW (220°)13.8 mphScattered Clouds
4:50 PM44.6 °F37.4 °F76 %29.50 in6.2 miSW (230°)18.4 mphScattered Clouds
5:20 PM44.6 °F35.6 °F71 %29.50 in6.2 miSW (220°)19.6 mphPartly Cloudy
5:50 PM42.8 °F37.4 °F81 %29.50 in6.2 miSW (220°)19.6 mphPartly Cloudy
6:20 PM42.8 °F37.4 °F81 %29.50 in6.2 miSW (230°)23.0 mphPartly Cloudy
6:50 PM42.8 °F37.4 °F81 %29.50 in6.2 miSW (230°)20.7 mphPartly Cloudy
7:20 PM42.8 °F35.6 °F76 %29.50 inSW (220°)19.6 mphClear
7:50 PM41.0 °F37.4 °F87 %29.50 inSW (220°)19.6 mphClear
8:20 PM41.0 °F37.4 °F87 %29.50 inSW (220°)18.4 mphClear
8:50 PM41.0 °F37.4 °F87 %29.50 in6.2 miSW (220°)21.9 mphPartly Cloudy
9:20 PM41.0 °F37.4 °F87 %29.47 in6.2 miSW (220°)24.2 mphPartly Cloudy
9:50 PM41.0 °F37.4 °F87 %29.47 in6.2 miSW (220°)27.6 mph40.3 mphPartly Cloudy
10:20 PM41.0 °F37.4 °F87 %29.50 in6.2 miSW (230°)23.0 mphPartly Cloudy
10:50 PM41.0 °F37.4 °F87 %29.47 inSW (220°)24.2 mphClear
11:20 PM41.0 °F35.6 °F81 %29.47 inSW (220°)21.9 mphClear
11:50 PM41.0 °F35.6 °F81 %29.50 in6.2 miSW (230°)21.9 mphPartly Cloudy
Hourly data recorded from EGNX, located miles away from Wymeswold, England







STORIES FROM OUR PARTNERS